Hourly Data Report for August 04, 2021

ALGONQUIN PARK EAST GATE
ONTARIO
Current Station Operator: ECCC - MSC

45°32'00.000" N
78°16'00.000" W
397.00 m
6080192
71581
TNK

Download Data

Hourly Data (August 2021)
Hourly Data Report for August 4, 2021
TIME
LST
Temp Definition
°C
Dew Point Definition
°C
Rel Hum Definition
%
Precip. Amount Definition
mm

Wind Dir Definition
10's deg

Wind Spd Definition
km/h
Visibility Definition
km
Stn Press Definition
kPa
Hmdx Definition


Wind Chill Definition


Weather Definition


00:00 11.5 11.0 97 0.0   0   97.18     LegendNANA
01:00 10.9 10.3 97 0.0   0   97.19     LegendNANA
02:00 10.1 9.6 97 0.0   0   97.19     LegendNANA
03:00 9.3 8.9 97 0.0   0   97.19     LegendNANA
04:00 9.1 8.7 98 0.0   0   97.23     LegendNANA
05:00 9.4 9.2 99 0.0   0   97.28     LegendNANA
06:00 9.5 9.3 98 0.0   0   97.30     LegendNANA
07:00 12.0 11.5 97 0.0   0   97.36     LegendNANA
08:00 16.1 14.2 88 0.0   0   97.37     LegendNANA
09:00 19.1 13.4 69 0.0 24 3   97.39     LegendNANA
10:00 22.5 14.2 59 0.0 23 6   97.39 26   LegendNANA
11:00 23.8 12.6 50 0.0 24 6   97.39 26   LegendNANA
12:00 24.6 12.3 46 0.0 19 7   97.38 27   LegendNANA
13:00 24.8 9.7 39 0.0 25 6   97.37 26   LegendNANA
14:00 25.5 10.6 39 0.0 28 5   97.32 27   LegendNANA
15:00 25.8 12.5 43 0.0 24 6   97.30 28   LegendNANA
16:00 25.5 13.1 46 0.0 21 6   97.29 28   LegendNANA
17:00 24.9 13.0 48 0.0 23 4   97.28 28   LegendNANA
18:00 23.5 13.6 54 0.0 23 3   97.28 27   LegendNANA
19:00 20.4 15.4 73 0.0   0   97.29 25   LegendNANA
20:00 17.1 14.0 82 0.0   0   97.31     LegendNANA
21:00 15.5 14.1 91 0.0 0 1   97.34     LegendNANA
22:00 13.8 12.7 93 0.0   0   97.36     LegendNANA
23:00 12.9 12.1 95 0.0   0   97.37     LegendNANA

Notes on Data Quality.

Legend

  • E = Estimated
  • M = Missing
  • NA = Not Available*
  • [empty] = Indicates an unobserved value
Date modified: